Location: Austin
(30.3000°N, 97.7500°W)
Time: 12:07:59
(UTC-05:00)

Cosmos 1626 - Pass Details

Date: 05 September 2024
Orbit: 371 x 375 km, 82.5° (Epoch: 11 September)

Event Time Altitude Azimuth Distance (km) Brightness Sun altitude
Rises 20:20:38 0° 17° (NNE) 2,230 5.4 -7.8°
Reaches altitude 10° 20:23:18 10° 44° (NE) 1,376 4.1 -8.3°
Maximum altitude 20:24:59 14° 78° (ENE) 1,160 3.4 -8.7°
Enters shadow 20:25:54 13° 99° (E) 1,228 3.4 -8.9°
